Time,TemperatureF,DewpointF,PressureIn,WindDirection,WindDirectionDegrees,WindSpeedMPH,WindSpeedGustMPH,Humidity,HourlyPrecipIn,Conditions,Clouds,dailyrainin,SoftwareType,DateUTC
2013-08-08 00:00:00,74.7,60.8,29.89,SW,217,0.0,0.0,62,0.00,CLR,,0.00,WeatherDisplay:10.37,2013-08-08 05:00:00,
2013-08-08 00:05:00,74.8,60.9,29.89,SW,217,0.0,0.0,62,0.00,CLR,,0.00,WeatherDisplay:10.37,2013-08-08 05:05:00,
2013-08-08 00:10:00,74.9,61.0,29.89,SW,217,3.5,3.5,62,0.00,CLR,,0.00,WeatherDisplay:10.37,2013-08-08 05:10:00,
2013-08-08 00:15:00,75.1,61.2,29.89,SW,217,0.0,0.0,62,0.00,CLR,,0.00,WeatherDisplay:10.37,2013-08-08 05:15:00,
2013-08-08 00:20:00,75.1,61.2,29.89,SW,221,3.5,3.5,62,0.00,CLR,,0.00,WeatherDisplay:10.37,2013-08-08 05:20:00,
2013-08-08 00:26:00,74.9,61.0,29.89,SW,221,3.5,3.5,62,0.00,CLR,,0.00,WeatherDisplay:10.37,2013-08-08 05:26:00,
2013-08-08 00:31:00,74.7,60.8,29.89,SW,221,0.0,0.0,62,0.00,CLR,,0.00,WeatherDisplay:10.37,2013-08-08 05:31:00,
2013-08-08 00:36:00,74.5,60.6,29.89,SW,221,0.0,0.0,62,0.00,CLR,,0.00,WeatherDisplay:10.37,2013-08-08 05:36:00,
2013-08-08 00:41:00,74.2,60.3,29.88,SSW,211,0.0,0.0,62,0.00,CLR,,0.00,WeatherDisplay:10.37,2013-08-08 05:41:00,
2013-08-08 00:46:00,74.1,60.2,29.89,SSW,213,0.0,0.0,62,0.00,CLR,,0.00,WeatherDisplay:10.37,2013-08-08 05:46:00,
2013-08-08 00:51:00,73.9,60.1,29.89,SW,214,3.5,3.5,62,0.00,CLR,,0.00,WeatherDisplay:10.37,2013-08-08 05:51:00,
2013-08-08 00:56:00,73.9,60.1,29.89,SW,214,0.0,0.0,62,0.00,CLR,,0.00,WeatherDisplay:10.37,2013-08-08 05:56:00,
2013-08-08 01:02:00,73.8,60.0,29.89,SW,214,0.0,0.0,62,0.00,CLR,,0.00,WeatherDisplay:10.37,2013-08-08 06:02:00,
2013-08-08 01:07:00,73.6,59.8,29.89,SW,217,1.2,0.0,62,0.00,CLR,,0.00,WeatherDisplay:10.37,2013-08-08 06:07:00,
2013-08-08 01:12:00,73.4,59.6,29.89,SW,217,0.0,0.0,62,0.00,CLR,,0.00,WeatherDisplay:10.37,2013-08-08 06:12:00,
2013-08-08 01:17:00,73.3,59.5,29.89,SW,217,0.0,0.0,62,0.00,CLR,,0.00,WeatherDisplay:10.37,2013-08-08 06:17:00,
2013-08-08 01:22:00,73.2,59.4,29.88,SW,217,0.0,0.0,62,0.00,CLR,,0.00,WeatherDisplay:10.37,2013-08-08 06:22:00,
2013-08-08 01:27:00,73.0,59.2,29.88,SW,217,0.0,0.0,62,0.00,CLR,,0.00,WeatherDisplay:10.37,2013-08-08 06:27:00,
2013-08-08 01:32:00,72.9,59.6,29.88,WSW,248,3.5,0.0,63,0.00,CLR,,0.00,WeatherDisplay:10.37,2013-08-08 06:32:00,
2013-08-08 01:37:00,72.7,59.4,29.88,WSW,248,0.0,0.0,63,0.00,CLR,,0.00,WeatherDisplay:10.37,2013-08-08 06:37:00,
2013-08-08 01:43:00,72.6,59.3,29.88,WSW,248,0.0,0.0,63,0.00,CLR,,0.00,WeatherDisplay:10.37,2013-08-08 06:43:00,
2013-08-08 01:48:00,72.6,59.3,29.88,WSW,248,0.0,0.0,63,0.00,CLR,,0.00,WeatherDisplay:10.37,2013-08-08 06:48:00,
2013-08-08 01:53:00,72.6,58.8,29.88,WSW,248,0.0,0.0,62,0.00,CLR,,0.00,WeatherDisplay:10.37,2013-08-08 06:53:00,
2013-08-08 01:58:00,72.6,59.3,29.88,WSW,248,0.0,0.0,63,0.00,CLR,,0.00,WeatherDisplay:10.37,2013-08-08 06:58:00,
2013-08-08 02:03:00,72.5,58.7,29.89,WSW,248,0.0,0.0,62,0.00,CLR,,0.00,WeatherDisplay:10.37,2013-08-08 07:03:00,
2013-08-08 02:08:00,72.5,58.7,29.89,WSW,248,0.0,0.0,62,0.00,CLR,,0.00,WeatherDisplay:10.37,2013-08-08 07:08:00,
2013-08-08 02:13:00,72.4,59.1,29.89,WSW,248,0.0,0.0,63,0.00,CLR,,0.00,WeatherDisplay:10.37,2013-08-08 07:13:00,
2013-08-08 02:18:00,72.4,59.1,29.89,WSW,248,0.0,0.0,63,0.00,CLR,,0.00,WeatherDisplay:10.37,2013-08-08 07:18:00,
2013-08-08 02:23:00,72.5,59.2,29.89,WSW,248,0.0,0.0,63,0.00,CLR,,0.00,WeatherDisplay:10.37,2013-08-08 07:23:00,
2013-08-08 02:28:00,72.4,59.1,29.89,WSW,248,0.0,0.0,63,0.00,CLR,,0.00,WeatherDisplay:10.37,2013-08-08 07:28:00,
2013-08-08 02:34:00,72.4,59.1,29.89,WSW,248,0.0,0.0,63,0.00,CLR,,0.00,WeatherDisplay:10.37,2013-08-08 07:34:00,
2013-08-08 02:39:00,72.4,59.1,29.88,WSW,248,0.0,0.0,63,0.00,CLR,,0.00,WeatherDisplay:10.37,2013-08-08 07:39:00,
2013-08-08 02:44:00,72.4,59.1,29.89,WSW,248,0.0,0.0,63,0.00,CLR,,0.00,WeatherDisplay:10.37,2013-08-08 07:44:00,
2013-08-08 02:49:00,72.3,59.0,29.88,WSW,248,0.0,0.0,63,0.00,CLR,,0.00,WeatherDisplay:10.37,2013-08-08 07:49:00,
2013-08-08 02:54:00,72.3,59.0,29.88,WSW,248,0.0,0.0,63,0.00,CLR,,0.00,WeatherDisplay:10.37,2013-08-08 07:54:00,
2013-08-08 02:59:00,72.2,58.9,29.88,WSW,248,0.0,0.0,63,0.00,CLR,,0.00,WeatherDisplay:10.37,2013-08-08 07:59:00,
2013-08-08 03:04:00,72.2,58.9,29.88,WSW,248,0.0,0.0,63,0.00,CLR,,0.00,WeatherDisplay:10.37,2013-08-08 08:04:00,
2013-08-08 03:09:00,72.2,58.9,29.88,WSW,248,0.0,0.0,63,0.00,CLR,,0.00,WeatherDisplay:10.37,2013-08-08 08:09:00,
2013-08-08 03:15:00,72.2,58.9,29.88,WSW,248,0.0,0.0,63,0.00,CLR,,0.00,WeatherDisplay:10.37,2013-08-08 08:15:00,
2013-08-08 03:20:00,72.2,58.9,29.88,NE,53,3.5,3.5,63,0.00,CLR,,0.00,WeatherDisplay:10.37,2013-08-08 08:20:00,
2013-08-08 03:25:00,72.3,59.0,29.89,NE,53,0.0,0.0,63,0.00,CLR,,0.00,WeatherDisplay:10.37,2013-08-08 08:25:00,
2013-08-08 03:30:00,72.4,59.1,29.88,NE,53,0.0,0.0,63,0.00,CLR,,0.00,WeatherDisplay:10.37,2013-08-08 08:30:00,
2013-08-08 03:36:00,72.5,59.2,29.88,NE,53,0.0,0.0,63,0.00,CLR,,0.00,WeatherDisplay:10.37,2013-08-08 08:36:00,
2013-08-08 03:41:00,72.6,59.3,29.89,NE,53,0.0,0.0,63,0.00,CLR,,0.00,WeatherDisplay:10.37,2013-08-08 08:41:00,
2013-08-08 03:46:00,72.6,59.3,29.89,NE,53,0.0,0.0,63,0.00,CLR,,0.00,WeatherDisplay:10.37,2013-08-08 08:46:00,
2013-08-08 03:51:00,72.7,59.4,29.89,NNE,32,0.0,0.0,63,0.00,CLR,,0.00,WeatherDisplay:10.37,2013-08-08 08:51:00,
2013-08-08 03:56:00,72.8,59.5,29.89,NNE,32,0.0,0.0,63,0.00,CLR,,0.00,WeatherDisplay:10.37,2013-08-08 08:56:00,
2013-08-08 04:02:00,72.8,59.5,29.89,ENE,74,0.0,0.0,63,0.00,CLR,,0.00,WeatherDisplay:10.37,2013-08-08 09:02:00,
2013-08-08 04:07:00,72.9,59.6,29.88,East,87,0.0,0.0,63,0.00,CLR,,0.00,WeatherDisplay:10.37,2013-08-08 09:07:00,
2013-08-08 04:12:00,72.9,59.6,29.88,NE,40,0.0,0.0,63,0.00,CLR,,0.00,WeatherDisplay:10.37,2013-08-08 09:12:00,
2013-08-08 04:17:00,72.9,59.6,29.88,East,84,2.3,2.3,63,0.00,CLR,,0.00,WeatherDisplay:10.37,2013-08-08 09:17:00,
2013-08-08 04:23:00,72.9,59.6,29.88,East,83,0.0,0.0,63,0.00,CLR,,0.00,WeatherDisplay:10.37,2013-08-08 09:23:00,
2013-08-08 04:28:00,72.8,59.5,29.88,East,80,2.0,2.0,63,0.00,CLR,,0.00,WeatherDisplay:10.37,2013-08-08 09:28:00,
2013-08-08 04:33:00,72.7,59.4,29.88,East,88,4.6,4.6,63,0.00,CLR,,0.00,WeatherDisplay:10.37,2013-08-08 09:33:00,
2013-08-08 04:38:00,72.5,59.2,29.87,ESE,111,1.2,1.2,63,0.00,CLR,,0.00,WeatherDisplay:10.37,2013-08-08 09:38:00,
2013-08-08 04:43:00,72.3,59.0,29.87,East,86,3.5,3.5,63,0.00,CLR,,0.00,WeatherDisplay:10.37,2013-08-08 09:43:00,
2013-08-08 04:48:00,72.2,58.9,29.87,East,101,4.6,4.6,63,0.00,CLR,,0.00,WeatherDisplay:10.37,2013-08-08 09:48:00,
2013-08-08 04:53:00,72.1,58.8,29.87,East,92,4.6,4.6,63,0.00,CLR,,0.00,WeatherDisplay:10.37,2013-08-08 09:53:00,
2013-08-08 04:58:00,72.1,58.8,29.87,East,92,0.0,0.0,63,0.00,CLR,,0.00,WeatherDisplay:10.37,2013-08-08 09:58:00,
2013-08-08 05:03:00,72.1,58.8,29.87,East,97,4.6,4.6,63,0.00,CLR,,0.00,WeatherDisplay:10.37,2013-08-08 10:03:00,
2013-08-08 05:09:00,72.0,58.7,29.87,ENE,76,0.0,0.0,63,0.00,CLR,,0.00,WeatherDisplay:10.37,2013-08-08 10:09:00,
2013-08-08 05:14:00,72.0,58.7,29.87,ESE,119,0.0,0.0,63,0.00,CLR,,0.00,WeatherDisplay:10.37,2013-08-08 10:14:00,
2013-08-08 05:19:00,72.0,58.7,29.87,East,90,3.5,0.0,63,0.00,CLR,,0.00,WeatherDisplay:10.37,2013-08-08 10:19:00,
2013-08-08 05:25:00,72.0,58.7,29.88,East,86,0.0,0.0,63,0.00,CLR,,0.00,WeatherDisplay:10.37,2013-08-08 10:25:00,
2013-08-08 05:30:00,71.9,58.6,29.88,ESE,102,0.0,0.0,63,0.00,CLR,,0.00,WeatherDisplay:10.37,2013-08-08 10:30:00,
2013-08-08 05:35:00,71.9,58.6,29.88,ESE,102,0.0,0.0,63,0.00,CLR,,0.00,WeatherDisplay:10.37,2013-08-08 10:35:00,
2013-08-08 05:40:00,71.9,58.6,29.88,ESE,102,0.0,0.0,63,0.00,CLR,,0.00,WeatherDisplay:10.37,2013-08-08 10:40:00,
2013-08-08 05:45:00,71.9,58.6,29.88,ESE,102,0.0,0.0,63,0.00,CLR,,0.00,WeatherDisplay:10.37,2013-08-08 10:45:00,
2013-08-08 05:50:00,71.8,58.5,29.88,ESE,102,0.0,0.0,63,0.00,CLR,,0.00,WeatherDisplay:10.37,2013-08-08 10:50:00,
2013-08-08 05:56:00,71.8,58.5,29.89,ESE,102,0.0,0.0,63,0.00,CLR,,0.00,WeatherDisplay:10.37,2013-08-08 10:56:00,
2013-08-08 06:01:00,71.7,58.4,29.89,ESE,102,0.0,0.0,63,0.00,CLR,,0.00,WeatherDisplay:10.37,2013-08-08 11:01:00,
2013-08-08 06:06:00,71.6,58.3,29.89,ESE,102,0.0,0.0,63,0.00,CLR,,0.00,WeatherDisplay:10.37,2013-08-08 11:06:00,
2013-08-08 06:11:00,71.7,58.4,29.89,East,101,0.0,0.0,63,0.00,CLR,,0.00,WeatherDisplay:10.37,2013-08-08 11:11:00,
2013-08-08 06:16:00,71.7,58.4,29.89,ESE,102,0.0,0.0,63,0.00,CLR,,0.00,WeatherDisplay:10.37,2013-08-08 11:16:00,
2013-08-08 06:22:00,71.7,58.4,29.89,East,101,0.0,0.0,63,0.00,CLR,,0.00,WeatherDisplay:10.37,2013-08-08 11:22:00,
2013-08-08 06:27:00,71.7,58.4,29.88,ESE,102,0.0,0.0,63,0.00,CLR,,0.00,WeatherDisplay:10.37,2013-08-08 11:27:00,
2013-08-08 06:32:00,71.7,58.4,29.89,East,101,0.0,0.0,63,0.00,CLR,,0.00,WeatherDisplay:10.37,2013-08-08 11:32:00,
2013-08-08 06:37:00,71.6,58.3,29.89,NNE,32,0.0,0.0,63,0.00,CLR,,0.00,WeatherDisplay:10.37,2013-08-08 11:37:00,
2013-08-08 06:42:00,71.5,58.2,29.89,NNE,32,0.0,0.0,63,0.00,CLR,,0.00,WeatherDisplay:10.37,2013-08-08 11:42:00,
2013-08-08 06:47:00,71.5,58.2,29.89,NNE,32,0.0,0.0,63,0.00,CLR,,0.00,WeatherDisplay:10.37,2013-08-08 11:47:00,
2013-08-08 06:53:00,71.5,58.2,29.89,NNE,31,0.0,0.0,63,0.00,CLR,,0.00,WeatherDisplay:10.37,2013-08-08 11:53:00,
2013-08-08 06:58:00,71.5,58.2,29.89,NNE,30,0.0,0.0,63,0.00,CLR,,0.00,WeatherDisplay:10.37,2013-08-08 11:58:00,
2013-08-08 07:03:00,71.4,58.1,29.89,NE,36,0.0,0.0,63,0.00,CLR,,0.00,WeatherDisplay:10.37,2013-08-08 12:03:00,
2013-08-08 07:08:00,71.4,58.1,29.90,NE,40,0.0,0.0,63,0.00,CLR,,0.00,WeatherDisplay:10.37,2013-08-08 12:08:00,
2013-08-08 07:13:00,71.4,58.1,29.90,East,90,0.0,0.0,63,0.00,CLR,,0.00,WeatherDisplay:10.37,2013-08-08 12:13:00,
2013-08-08 07:18:00,71.5,58.2,29.90,East,90,0.0,0.0,63,0.00,CLR,,0.00,WeatherDisplay:10.37,2013-08-08 12:18:00,
2013-08-08 07:23:00,71.7,58.4,29.91,East,88,0.0,0.0,63,0.00,CLR,,0.00,WeatherDisplay:10.37,2013-08-08 12:23:00,
2013-08-08 07:28:00,71.7,58.4,29.91,ENE,76,0.0,0.0,63,0.00,CLR,,0.00,WeatherDisplay:10.37,2013-08-08 12:28:00,
2013-08-08 07:33:00,71.8,58.5,29.92,ENE,77,0.0,0.0,63,0.00,CLR,,0.00,WeatherDisplay:10.37,2013-08-08 12:33:00,
2013-08-08 07:39:00,71.8,58.5,29.92,ENE,77,0.0,0.0,63,0.00,CLR,,0.00,WeatherDisplay:10.37,2013-08-08 12:39:00,
2013-08-08 07:44:00,71.8,58.5,29.92,ENE,76,0.0,0.0,63,0.00,CLR,,0.00,WeatherDisplay:10.37,2013-08-08 12:44:00,
2013-08-08 07:49:00,71.7,58.4,29.92,ENE,77,0.0,0.0,63,0.00,CLR,,0.00,WeatherDisplay:10.37,2013-08-08 12:49:00,
2013-08-08 07:54:00,71.7,58.4,29.92,ENE,76,0.0,0.0,63,0.00,CLR,,0.00,WeatherDisplay:10.37,2013-08-08 12:54:00,
2013-08-08 07:59:00,71.8,58.5,29.92,ENE,76,0.0,0.0,63,0.00,CLR,,0.00,WeatherDisplay:10.37,2013-08-08 12:59:00,
2013-08-08 08:04:00,71.7,58.4,29.92,ENE,63,1.2,1.2,63,0.00,CLR,,0.00,WeatherDisplay:10.37,2013-08-08 13:04:00,
2013-08-08 08:09:00,71.8,58.5,29.92,ENE,63,0.0,0.0,63,0.00,CLR,,0.00,WeatherDisplay:10.37,2013-08-08 13:09:00,
2013-08-08 08:15:00,71.7,58.4,29.93,East,98,3.5,3.5,63,0.00,CLR,,0.00,WeatherDisplay:10.37,2013-08-08 13:15:00,
2013-08-08 08:20:00,71.7,58.4,29.92,East,92,1.2,0.0,63,0.00,CLR,,0.00,WeatherDisplay:10.37,2013-08-08 13:20:00,
2013-08-08 08:25:00,72.0,58.3,29.93,East,80,0.0,0.0,62,0.00,CLR,,0.00,WeatherDisplay:10.37,2013-08-08 13:25:00,
2013-08-08 08:30:00,72.0,58.3,29.93,East,88,0.0,0.0,62,0.00,CLR,,0.00,WeatherDisplay:10.37,2013-08-08 13:30:00,
2013-08-08 08:35:00,72.1,58.4,29.93,East,85,2.3,2.3,62,0.00,CLR,,0.00,WeatherDisplay:10.37,2013-08-08 13:35:00,
2013-08-08 08:40:00,72.1,58.4,29.92,ENE,77,0.0,0.1,62,0.00,CLR,,0.00,WeatherDisplay:10.37,2013-08-08 13:40:00,
2013-08-08 08:45:00,72.1,58.4,29.92,ENE,71,0.0,0.0,62,0.00,CLR,,0.00,WeatherDisplay:10.37,2013-08-08 13:45:00,
2013-08-08 08:50:00,72.4,58.6,29.92,East,81,0.0,0.1,62,0.00,CLR,,0.00,WeatherDisplay:10.37,2013-08-08 13:50:00,
2013-08-08 08:56:00,72.3,58.5,29.91,East,87,4.0,4.0,62,0.00,CLR,,0.00,WeatherDisplay:10.37,2013-08-08 13:56:00,
2013-08-08 09:01:00,72.3,58.5,29.92,East,87,0.0,0.0,62,0.00,CLR,,0.00,WeatherDisplay:10.37,2013-08-08 14:01:00,
2013-08-08 09:06:00,72.4,58.6,29.92,East,87,2.0,2.0,62,0.00,CLR,,0.00,WeatherDisplay:10.37,2013-08-08 14:06:00,
2013-08-08 09:11:00,72.3,58.5,29.92,ENE,70,3.5,3.5,62,0.01,RA,,0.01,WeatherDisplay:10.37,2013-08-08 14:11:00,
2013-08-08 09:17:00,72.2,58.5,29.92,ENE,69,0.0,0.0,62,0.01,RA,,0.01,WeatherDisplay:10.37,2013-08-08 14:17:00,
2013-08-08 09:22:00,72.1,58.4,29.92,ENE,69,0.0,0.0,62,0.01,CLR,,0.01,WeatherDisplay:10.37,2013-08-08 14:22:00,
2013-08-08 09:27:00,72.1,58.4,29.93,ENE,70,0.0,0.0,62,0.01,CLR,,0.01,WeatherDisplay:10.37,2013-08-08 14:27:00,
2013-08-08 09:32:00,72.0,58.3,29.93,ENE,70,0.0,0.0,62,0.02,RA,,0.02,WeatherDisplay:10.37,2013-08-08 14:32:00,
2013-08-08 09:37:00,71.9,58.2,29.92,East,83,0.0,0.0,62,0.02,RA,,0.02,WeatherDisplay:10.37,2013-08-08 14:37:00,
2013-08-08 09:42:00,71.8,58.1,29.92,NE,55,0.0,0.0,62,0.02,,,0.02,WeatherDisplay:10.37,2013-08-08 14:42:00,
2013-08-08 09:48:00,71.8,58.1,29.92,NE,55,0.0,0.0,62,0.02,CLR,,0.02,WeatherDisplay:10.37,2013-08-08 14:48:00,
2013-08-08 09:53:00,71.7,58.0,29.93,NNE,19,3.5,3.5,62,0.03,RA,,0.03,WeatherDisplay:10.37,2013-08-08 14:53:00,
2013-08-08 09:58:00,71.7,58.0,29.93,NNE,19,0.0,0.0,62,0.04,RA,,0.04,WeatherDisplay:10.37,2013-08-08 14:58:00,
2013-08-08 10:03:00,71.8,58.1,29.94,NNE,20,0.0,0.0,62,0.05,RA,,0.05,WeatherDisplay:10.37,2013-08-08 15:03:00,
2013-08-08 10:09:00,71.7,58.0,29.93,NNE,19,0.0,0.0,62,0.05,RA,,0.06,WeatherDisplay:10.37,2013-08-08 15:09:00,
2013-08-08 10:14:00,71.8,58.1,29.94,NNE,20,0.0,0.0,62,0.06,RA,,0.07,WeatherDisplay:10.37,2013-08-08 15:14:00,
2013-08-08 10:19:00,71.9,58.2,29.94,NNE,20,0.0,0.0,62,0.06,RA,,0.07,WeatherDisplay:10.37,2013-08-08 15:19:00,
2013-08-08 10:24:00,71.9,58.2,29.94,ENE,72,3.5,3.5,62,0.07,RA,,0.08,WeatherDisplay:10.37,2013-08-08 15:24:00,
2013-08-08 10:29:00,72.0,58.3,29.94,NE,38,0.0,0.0,62,0.08,RA,,0.09,WeatherDisplay:10.37,2013-08-08 15:29:00,
2013-08-08 10:34:00,71.9,58.2,29.94,NE,38,1.2,0.0,62,0.08,RA,,0.10,WeatherDisplay:10.37,2013-08-08 15:34:00,
2013-08-08 10:40:00,71.9,58.2,29.94,NE,47,0.0,0.0,62,0.09,RA,,0.11,WeatherDisplay:10.37,2013-08-08 15:40:00,
2013-08-08 10:45:00,71.9,58.2,29.94,NE,46,0.0,0.0,62,0.09,RA,,0.11,WeatherDisplay:10.37,2013-08-08 15:45:00,
2013-08-08 10:50:00,72.0,58.3,29.94,NE,48,1.2,0.0,62,0.10,RA,,0.12,WeatherDisplay:10.37,2013-08-08 15:50:00,
2013-08-08 10:55:00,72.2,58.5,29.94,ENE,66,0.0,0.0,62,0.10,RA,,0.13,WeatherDisplay:10.37,2013-08-08 15:55:00,
2013-08-08 11:00:00,72.3,58.5,29.94,East,84,0.0,0.0,62,0.09,RA,,0.13,WeatherDisplay:10.37,2013-08-08 16:00:00,
2013-08-08 11:05:00,72.5,58.7,29.94,East,91,1.2,0.0,62,0.09,RA,,0.14,WeatherDisplay:10.37,2013-08-08 16:05:00,
2013-08-08 11:10:00,72.6,58.8,29.94,East,90,0.0,0.0,62,0.09,RA,,0.15,WeatherDisplay:10.37,2013-08-08 16:10:00,
2013-08-08 11:15:00,72.8,59.0,29.94,East,90,0.0,0.0,62,0.08,RA,,0.15,WeatherDisplay:10.37,2013-08-08 16:15:00,
2013-08-08 11:20:00,72.8,59.0,29.94,NNE,28,4.6,4.6,62,0.09,RA,,0.16,WeatherDisplay:10.37,2013-08-08 16:20:00,
2013-08-08 11:25:00,72.5,58.7,29.94,NNE,29,2.3,0.0,62,0.09,RA,,0.17,WeatherDisplay:10.37,2013-08-08 16:25:00,
2013-08-08 11:31:00,72.5,58.7,29.94,NNE,29,0.0,0.0,62,0.08,RA,,0.17,WeatherDisplay:10.37,2013-08-08 16:31:00,
2013-08-08 11:36:00,72.6,58.8,29.94,NNE,29,1.2,0.0,62,0.08,RA,,0.18,WeatherDisplay:10.37,2013-08-08 16:36:00,
2013-08-08 11:41:00,72.6,58.8,29.94,NNE,29,0.0,0.0,62,0.07,RA,,0.18,WeatherDisplay:10.37,2013-08-08 16:41:00,
2013-08-08 11:46:00,72.5,58.7,29.94,NNE,29,0.0,0.0,62,0.08,RA,,0.19,WeatherDisplay:10.37,2013-08-08 16:46:00,
2013-08-08 11:52:00,72.7,58.9,29.93,NNE,29,0.0,0.0,62,0.07,RA,,0.19,WeatherDisplay:10.37,2013-08-08 16:52:00,
2013-08-08 11:57:00,72.8,59.0,29.93,NNE,29,0.0,0.0,62,0.06,CLR,,0.19,WeatherDisplay:10.37,2013-08-08 16:57:00,
2013-08-08 12:02:00,72.9,59.1,29.93,NNE,29,0.0,0.0,62,0.07,RA,,0.20,WeatherDisplay:10.37,2013-08-08 17:02:00,
2013-08-08 12:07:00,73.1,59.3,29.93,NNE,29,0.0,0.0,62,0.07,RA,,0.21,WeatherDisplay:10.37,2013-08-08 17:07:00,
2013-08-08 12:13:00,73.2,59.4,29.93,NNE,29,0.0,0.0,62,0.06,RA,,0.21,WeatherDisplay:10.37,2013-08-08 17:13:00,
2013-08-08 12:18:00,73.2,59.4,29.93,NNE,29,0.0,0.0,62,0.05,,,0.21,WeatherDisplay:10.37,2013-08-08 17:18:00,
2013-08-08 12:23:00,73.4,59.6,29.93,NNE,29,0.0,0.0,62,0.05,CLR,,0.21,WeatherDisplay:10.37,2013-08-08 17:23:00,
2013-08-08 12:28:00,73.4,59.6,29.93,NNE,28,1.2,0.0,62,0.05,RA,,0.22,WeatherDisplay:10.37,2013-08-08 17:28:00,
2013-08-08 12:33:00,73.4,59.6,29.93,NNE,15,3.5,3.5,62,0.05,RA,,0.22,WeatherDisplay:10.37,2013-08-08 17:33:00,
2013-08-08 12:38:00,73.1,59.3,29.93,NNE,26,0.0,0.0,62,0.05,RA,,0.23,WeatherDisplay:10.37,2013-08-08 17:38:00,
2013-08-08 12:44:00,73.3,59.5,29.93,East,98,0.0,0.0,62,0.04,RA,,0.23,WeatherDisplay:10.37,2013-08-08 17:44:00,
2013-08-08 12:49:00,73.2,59.4,29.93,East,86,0.0,0.0,62,0.04,CLR,,0.23,WeatherDisplay:10.37,2013-08-08 17:49:00,
2013-08-08 12:54:00,73.2,59.4,29.93,East,86,0.0,0.0,62,0.04,CLR,,0.23,WeatherDisplay:10.37,2013-08-08 17:54:00,
2013-08-08 12:59:00,73.4,59.6,29.92,East,86,0.0,0.0,62,0.03,CLR,,0.23,WeatherDisplay:10.37,2013-08-08 17:59:00,
2013-08-08 13:04:00,73.5,59.7,29.92,East,86,0.0,0.0,62,0.04,RA,,0.24,WeatherDisplay:10.37,2013-08-08 18:04:00,
2013-08-08 13:09:00,73.5,59.7,29.92,ENE,57,0.0,0.0,62,0.03,RA,,0.24,WeatherDisplay:10.37,2013-08-08 18:09:00,
2013-08-08 13:15:00,73.5,59.7,29.92,East,80,0.0,0.0,62,0.03,CLR,,0.24,WeatherDisplay:10.37,2013-08-08 18:15:00,
2013-08-08 13:20:00,73.5,59.7,29.92,East,98,0.0,0.0,62,0.03,CLR,,0.24,WeatherDisplay:10.37,2013-08-08 18:20:00,
2013-08-08 13:25:00,73.7,59.9,29.92,East,98,0.0,0.0,62,0.03,RA,,0.25,WeatherDisplay:10.37,2013-08-08 18:25:00,
2013-08-08 13:30:00,73.7,59.9,29.91,East,98,0.0,0.0,62,0.03,RA,,0.25,WeatherDisplay:10.37,2013-08-08 18:30:00,
2013-08-08 13:36:00,73.9,60.1,29.91,East,98,0.0,0.0,62,0.03,CLR,,0.25,WeatherDisplay:10.37,2013-08-08 18:36:00,
2013-08-08 13:41:00,74.1,60.2,29.92,ENE,78,0.0,0.0,62,0.02,CLR,,0.25,WeatherDisplay:10.37,2013-08-08 18:41:00,
2013-08-08 13:46:00,74.5,60.6,29.91,East,80,0.0,0.0,62,0.02,CLR,,0.25,WeatherDisplay:10.37,2013-08-08 18:46:00,
2013-08-08 13:51:00,74.5,60.6,29.92,NE,48,0.0,0.0,62,0.02,CLR,,0.25,WeatherDisplay:10.37,2013-08-08 18:51:00,
2013-08-08 13:56:00,74.7,60.8,29.91,NE,46,0.0,0.0,62,0.02,CLR,,0.25,WeatherDisplay:10.37,2013-08-08 18:56:00,
2013-08-08 14:01:00,74.9,61.0,29.92,ESE,123,0.0,0.0,62,0.03,RA,,0.26,WeatherDisplay:10.37,2013-08-08 19:01:00,
2013-08-08 14:06:00,75.2,61.3,29.91,NE,34,0.0,0.0,62,0.02,RA,,0.26,WeatherDisplay:10.37,2013-08-08 19:06:00,
2013-08-08 14:12:00,75.1,61.2,29.91,NE,40,3.5,3.5,62,0.02,,,0.26,WeatherDisplay:10.37,2013-08-08 19:12:00,
2013-08-08 14:17:00,75.1,61.2,29.91,NE,53,4.6,4.6,62,0.02,CLR,,0.26,WeatherDisplay:10.37,2013-08-08 19:17:00,
2013-08-08 14:22:00,75.3,61.4,29.91,NE,37,1.2,0.0,62,0.01,CLR,,0.26,WeatherDisplay:10.37,2013-08-08 19:22:00,
2013-08-08 14:28:00,75.5,61.6,29.91,NNE,18,0.0,0.0,62,0.01,CLR,,0.26,WeatherDisplay:10.37,2013-08-08 19:28:00,
2013-08-08 14:33:00,75.9,61.9,29.91,NE,37,2.3,2.3,62,0.01,CLR,,0.26,WeatherDisplay:10.37,2013-08-08 19:33:00,
2013-08-08 14:38:00,76.3,62.3,29.91,NE,34,4.6,4.6,62,0.01,CLR,,0.26,WeatherDisplay:10.37,2013-08-08 19:38:00,
2013-08-08 14:43:00,76.4,62.4,29.91,ENE,74,3.5,3.5,62,0.02,RA,,0.27,WeatherDisplay:10.37,2013-08-08 19:43:00,
2013-08-08 14:48:00,76.5,62.5,29.91,East,86,0.0,0.0,62,0.02,RA,,0.27,WeatherDisplay:10.37,2013-08-08 19:48:00,
2013-08-08 14:53:00,76.3,62.8,29.91,ESE,104,0.0,0.0,63,0.02,CLR,,0.27,WeatherDisplay:10.37,2013-08-08 19:53:00,
2013-08-08 14:59:00,76.1,62.6,29.90,ENE,58,0.0,0.0,63,0.02,CLR,,0.27,WeatherDisplay:10.37,2013-08-08 19:59:00,
2013-08-08 15:04:00,76.1,62.6,29.90,NNE,16,0.0,0.7,63,0.01,CLR,,0.27,WeatherDisplay:10.37,2013-08-08 20:04:00,
2013-08-08 15:09:00,76.2,62.7,29.90,NE,52,1.2,0.0,63,0.01,CLR,,0.27,WeatherDisplay:10.37,2013-08-08 20:09:00,
2013-08-08 15:14:00,76.4,62.9,29.90,NE,52,0.0,0.0,63,0.01,CLR,,0.27,WeatherDisplay:10.37,2013-08-08 20:14:00,
2013-08-08 15:19:00,76.6,62.6,29.90,NE,53,0.0,0.0,62,0.01,CLR,,0.27,WeatherDisplay:10.37,2013-08-08 20:19:00,
2013-08-08 15:24:00,76.5,63.0,29.90,NE,50,9.2,9.2,63,0.01,CLR,,0.27,WeatherDisplay:10.37,2013-08-08 20:24:00,
2013-08-08 15:30:00,76.2,62.7,29.90,ENE,71,1.2,0.0,63,0.01,CLR,,0.27,WeatherDisplay:10.37,2013-08-08 20:30:00,
2013-08-08 15:35:00,76.0,62.5,29.90,East,85,3.5,3.5,63,0.01,CLR,,0.27,WeatherDisplay:10.37,2013-08-08 20:35:00,
2013-08-08 15:40:00,75.9,62.4,29.90,East,84,1.2,0.0,63,0.00,CLR,,0.27,WeatherDisplay:10.37,2013-08-08 20:40:00,
2013-08-08 15:45:00,75.8,62.3,29.90,ESE,102,1.2,0.0,63,0.00,CLR,,0.27,WeatherDisplay:10.37,2013-08-08 20:45:00,
2013-08-08 15:50:00,75.8,61.8,29.90,ESE,105,0.0,0.0,62,0.00,CLR,,0.27,WeatherDisplay:10.37,2013-08-08 20:50:00,
2013-08-08 15:56:00,75.7,61.8,29.90,ENE,78,4.6,4.6,62,0.00,CLR,,0.27,WeatherDisplay:10.37,2013-08-08 20:56:00,
2013-08-08 16:01:00,75.6,61.7,29.89,East,96,3.5,3.5,62,0.00,CLR,,0.27,WeatherDisplay:10.37,2013-08-08 21:01:00,
2013-08-08 16:06:00,75.5,61.6,29.90,East,84,0.0,0.0,62,0.00,CLR,,0.27,WeatherDisplay:10.37,2013-08-08 21:06:00,
2013-08-08 16:11:00,75.5,61.6,29.90,East,83,0.0,0.0,62,0.00,CLR,,0.27,WeatherDisplay:10.37,2013-08-08 21:11:00,
2013-08-08 16:16:00,75.4,61.5,29.89,East,82,4.6,4.6,62,0.00,CLR,,0.27,WeatherDisplay:10.37,2013-08-08 21:16:00,
2013-08-08 16:21:00,75.5,61.6,29.90,East,96,3.5,3.5,62,0.00,CLR,,0.27,WeatherDisplay:10.37,2013-08-08 21:21:00,
2013-08-08 16:26:00,75.5,61.6,29.89,ESE,115,3.5,3.5,62,0.00,CLR,,0.27,WeatherDisplay:10.37,2013-08-08 21:26:00,
2013-08-08 16:31:00,75.8,61.8,29.89,ESE,103,0.0,0.0,62,0.00,CLR,,0.27,WeatherDisplay:10.37,2013-08-08 21:31:00,
2013-08-08 16:36:00,76.1,62.1,29.89,East,97,3.5,3.5,62,0.00,CLR,,0.27,WeatherDisplay:10.37,2013-08-08 21:36:00,
2013-08-08 16:41:00,76.5,62.5,29.89,North,360,0.0,0.0,62,0.00,CLR,,0.27,WeatherDisplay:10.37,2013-08-08 21:41:00,
2013-08-08 16:47:00,76.6,62.6,29.89,East,99,0.0,0.0,62,0.00,CLR,,0.27,WeatherDisplay:10.37,2013-08-08 21:47:00,
2013-08-08 16:52:00,76.4,62.9,29.89,East,89,4.6,4.6,63,0.00,CLR,,0.27,WeatherDisplay:10.37,2013-08-08 21:52:00,
2013-08-08 16:57:00,76.4,62.9,29.89,ESE,112,4.0,4.0,63,0.00,CLR,,0.27,WeatherDisplay:10.37,2013-08-08 21:57:00,
2013-08-08 17:02:00,76.6,63.1,29.89,East,87,4.6,4.6,63,0.00,CLR,,0.27,WeatherDisplay:10.37,2013-08-08 22:02:00,
2013-08-08 17:07:00,77.0,63.4,29.89,East,79,6.9,6.9,63,0.00,CLR,,0.27,WeatherDisplay:10.37,2013-08-08 22:07:00,
2013-08-08 17:13:00,77.1,63.5,29.89,East,83,0.0,0.0,63,0.00,CLR,,0.27,WeatherDisplay:10.37,2013-08-08 22:13:00,
2013-08-08 17:18:00,77.1,63.5,29.89,East,84,4.6,4.6,63,0.00,CLR,,0.27,WeatherDisplay:10.37,2013-08-08 22:18:00,
2013-08-08 17:23:00,76.8,63.2,29.89,ENE,78,3.0,3.0,63,0.00,CLR,,0.27,WeatherDisplay:10.37,2013-08-08 22:23:00,
2013-08-08 17:28:00,76.6,63.1,29.90,East,89,5.0,5.0,63,0.00,CLR,,0.27,WeatherDisplay:10.37,2013-08-08 22:28:00,
2013-08-08 17:34:00,76.4,62.9,29.90,East,83,1.2,1.2,63,0.00,CLR,,0.27,WeatherDisplay:10.37,2013-08-08 22:34:00,
2013-08-08 17:40:00,76.4,62.9,29.90,NNE,15,0.0,0.0,63,0.00,CLR,,0.27,WeatherDisplay:10.37,2013-08-08 22:40:00,
2013-08-08 17:45:00,76.6,63.1,29.90,ENE,76,3.5,3.5,63,0.00,CLR,,0.27,WeatherDisplay:10.37,2013-08-08 22:45:00,
2013-08-08 17:51:00,76.5,63.0,29.90,East,90,0.0,0.0,63,0.00,CLR,,0.27,WeatherDisplay:10.37,2013-08-08 22:51:00,
2013-08-08 17:57:00,76.4,62.9,29.90,East,90,0.0,0.0,63,0.00,CLR,,0.27,WeatherDisplay:10.37,2013-08-08 22:57:00,
2013-08-08 18:02:00,76.4,62.9,29.90,East,90,0.0,0.0,63,0.01,RA,,0.28,WeatherDisplay:10.37,2013-08-08 23:02:00,
2013-08-08 18:08:00,76.4,62.9,29.90,ENE,59,0.0,0.0,63,0.01,,,0.28,WeatherDisplay:10.37,2013-08-08 23:08:00,
2013-08-08 18:13:00,76.3,62.8,29.90,NE,55,0.0,0.0,63,0.01,CLR,,0.28,WeatherDisplay:10.37,2013-08-08 23:13:00,
2013-08-08 18:18:00,76.3,62.8,29.90,NE,56,0.0,0.0,63,0.01,CLR,,0.28,WeatherDisplay:10.37,2013-08-08 23:18:00,
2013-08-08 18:23:00,76.4,62.9,29.90,NE,55,0.0,0.0,63,0.01,CLR,,0.28,WeatherDisplay:10.37,2013-08-08 23:23:00,
2013-08-08 18:28:00,76.5,63.0,29.90,East,87,0.0,0.0,63,0.01,CLR,,0.28,WeatherDisplay:10.37,2013-08-08 23:28:00,
2013-08-08 18:34:00,76.5,63.0,29.90,ENE,59,3.5,3.5,63,0.01,CLR,,0.28,WeatherDisplay:10.37,2013-08-08 23:34:00,
2013-08-08 18:39:00,76.4,63.3,29.90,ENE,59,0.0,0.0,64,0.01,CLR,,0.28,WeatherDisplay:10.37,2013-08-08 23:39:00,
2013-08-08 18:44:00,76.2,63.1,29.90,ENE,58,0.0,0.0,64,0.01,CLR,,0.28,WeatherDisplay:10.37,2013-08-08 23:44:00,
2013-08-08 18:49:00,76.0,62.9,29.90,ENE,59,1.2,0.0,64,0.01,CLR,,0.28,WeatherDisplay:10.37,2013-08-08 23:49:00,
2013-08-08 18:54:00,75.9,62.8,29.90,ENE,59,0.0,0.0,64,0.01,CLR,,0.28,WeatherDisplay:10.37,2013-08-08 23:54:00,
2013-08-08 18:59:00,75.9,62.8,29.91,ENE,59,0.0,0.0,64,0.00,CLR,,0.28,WeatherDisplay:10.37,2013-08-08 23:59:00,
2013-08-08 19:05:00,75.8,62.3,29.90,ENE,59,0.0,0.0,63,0.00,CLR,,0.28,WeatherDisplay:10.37,2013-08-09 00:05:00,
2013-08-08 19:10:00,75.7,62.2,29.90,ENE,59,0.0,0.0,63,0.00,CLR,,0.28,WeatherDisplay:10.37,2013-08-09 00:10:00,
2013-08-08 19:15:00,75.6,62.1,29.91,ENE,58,0.0,0.0,63,0.00,CLR,,0.28,WeatherDisplay:10.37,2013-08-09 00:15:00,
2013-08-08 19:21:00,75.6,62.1,29.91,ENE,59,0.0,0.0,63,0.00,CLR,,0.28,WeatherDisplay:10.37,2013-08-09 00:21:00,
2013-08-08 19:26:00,75.5,62.0,29.90,ENE,59,0.0,0.0,63,0.00,CLR,,0.28,WeatherDisplay:10.37,2013-08-09 00:26:00,
2013-08-08 19:31:00,75.5,62.0,29.90,ENE,57,0.0,0.0,63,0.00,CLR,,0.28,WeatherDisplay:10.37,2013-08-09 00:31:00,
2013-08-08 19:36:00,75.4,61.9,29.90,NNE,25,0.0,0.0,63,0.00,CLR,,0.28,WeatherDisplay:10.37,2013-08-09 00:36:00,
2013-08-08 19:42:00,75.3,61.8,29.91,NNE,25,0.0,0.0,63,0.00,CLR,,0.28,WeatherDisplay:10.37,2013-08-09 00:42:00,
2013-08-08 19:47:00,75.2,61.7,29.91,NNE,25,0.0,0.0,63,0.00,CLR,,0.28,WeatherDisplay:10.37,2013-08-09 00:47:00,
2013-08-08 19:53:00,75.1,61.6,29.91,NNE,25,0.0,0.0,63,0.00,CLR,,0.28,WeatherDisplay:10.37,2013-08-09 00:53:00,
2013-08-08 19:58:00,75.0,61.5,29.91,NNE,25,0.0,0.0,63,0.00,CLR,,0.28,WeatherDisplay:10.37,2013-08-09 00:58:00,
2013-08-08 20:03:00,75.0,61.5,29.91,NNE,25,0.0,0.0,63,0.00,CLR,,0.28,WeatherDisplay:10.37,2013-08-09 01:03:00,
2013-08-08 20:08:00,74.9,61.5,29.91,NNE,25,0.0,0.0,63,0.00,CLR,,0.28,WeatherDisplay:10.37,2013-08-09 01:08:00,
2013-08-08 20:14:00,74.8,61.4,29.91,NNE,25,0.0,0.0,63,0.00,CLR,,0.28,WeatherDisplay:10.37,2013-08-09 01:14:00,
2013-08-08 20:19:00,74.8,60.9,29.91,NNE,25,0.0,0.0,62,0.00,CLR,,0.28,WeatherDisplay:10.37,2013-08-09 01:19:00,
2013-08-08 20:24:00,74.7,60.8,29.91,NNE,25,0.0,0.0,62,0.00,CLR,,0.28,WeatherDisplay:10.37,2013-08-09 01:24:00,
2013-08-08 20:30:00,74.7,60.8,29.91,NNE,25,0.0,0.0,62,0.00,CLR,,0.28,WeatherDisplay:10.37,2013-08-09 01:30:00,
2013-08-08 20:35:00,74.6,60.7,29.91,NNE,25,0.0,0.0,62,0.00,CLR,,0.28,WeatherDisplay:10.37,2013-08-09 01:35:00,
2013-08-08 20:41:00,74.6,60.7,29.91,NNE,25,0.0,0.0,62,0.00,CLR,,0.28,WeatherDisplay:10.37,2013-08-09 01:41:00,
2013-08-08 20:46:00,74.6,60.7,29.91,NNE,25,0.0,0.0,62,0.00,CLR,,0.28,WeatherDisplay:10.37,2013-08-09 01:46:00,
2013-08-08 20:51:00,74.5,60.6,29.91,NNE,25,0.0,0.0,62,0.00,CLR,,0.28,WeatherDisplay:10.37,2013-08-09 01:51:00,
2013-08-08 20:56:00,74.5,60.6,29.92,NNE,25,0.0,0.0,62,0.00,CLR,,0.28,WeatherDisplay:10.37,2013-08-09 01:56:00,
2013-08-08 21:02:00,74.5,60.6,29.92,NNE,25,0.0,0.0,62,0.00,CLR,,0.28,WeatherDisplay:10.37,2013-08-09 02:02:00,
2013-08-08 21:08:00,74.4,60.5,29.92,NNE,20,0.0,0.0,62,0.00,CLR,,0.28,WeatherDisplay:10.37,2013-08-09 02:08:00,
2013-08-08 21:13:00,74.4,60.5,29.92,NNE,20,1.0,0.0,62,0.00,CLR,,0.28,WeatherDisplay:10.37,2013-08-09 02:13:00,
2013-08-08 21:18:00,74.2,60.3,29.92,NNE,26,2.3,2.3,62,0.00,CLR,,0.28,WeatherDisplay:10.37,2013-08-09 02:18:00,
2013-08-08 21:23:00,74.1,60.7,29.92,North,5,6.0,6.0,63,0.00,CLR,,0.28,WeatherDisplay:10.37,2013-08-09 02:23:00,
2013-08-08 21:29:00,73.9,60.5,29.93,NNE,17,5.8,5.8,63,0.00,CLR,,0.28,WeatherDisplay:10.37,2013-08-09 02:29:00,
2013-08-08 21:34:00,73.7,60.3,29.93,North,360,4.6,4.6,63,0.00,CLR,,0.28,WeatherDisplay:10.37,2013-08-09 02:34:00,
2013-08-08 21:40:00,73.3,59.9,29.93,NNE,30,11.5,11.5,63,0.00,CLR,,0.28,WeatherDisplay:10.37,2013-08-09 02:40:00,
2013-08-08 21:45:00,73.1,60.2,29.92,NNE,26,9.2,9.2,64,0.00,CLR,,0.28,WeatherDisplay:10.37,2013-08-09 02:45:00,
2013-08-08 21:51:00,72.8,60.3,29.93,NNE,18,3.5,3.5,65,0.00,CLR,,0.28,WeatherDisplay:10.37,2013-08-09 02:51:00,
2013-08-08 21:57:00,72.6,60.2,29.93,NNE,28,3.5,3.5,65,0.00,CLR,,0.28,WeatherDisplay:10.37,2013-08-09 02:57:00,
2013-08-08 22:02:00,72.4,60.0,29.93,NNE,22,3.5,3.5,65,0.00,CLR,,0.28,WeatherDisplay:10.37,2013-08-09 03:02:00,
2013-08-08 22:07:00,72.2,60.2,29.93,NNE,32,3.5,3.6,66,0.00,CLR,,0.28,WeatherDisplay:10.37,2013-08-09 03:07:00,
2013-08-08 22:13:00,72.0,60.4,29.93,NNW,348,10.4,10.4,67,0.00,CLR,,0.28,WeatherDisplay:10.37,2013-08-09 03:13:00,
2013-08-08 22:18:00,71.9,60.3,29.93,NE,36,4.6,4.6,67,0.00,CLR,,0.28,WeatherDisplay:10.37,2013-08-09 03:18:00,
2013-08-08 22:23:00,71.8,60.2,29.93,NE,35,0.0,0.0,67,0.00,CLR,,0.28,WeatherDisplay:10.37,2013-08-09 03:23:00,
2013-08-08 22:28:00,71.6,60.1,29.93,NNE,33,3.5,3.5,67,0.00,CLR,,0.28,WeatherDisplay:10.37,2013-08-09 03:28:00,
2013-08-08 22:33:00,71.5,60.0,29.93,NE,41,4.6,4.6,67,0.00,CLR,,0.28,WeatherDisplay:10.37,2013-08-09 03:33:00,
2013-08-08 22:38:00,71.4,59.9,29.93,NE,41,1.2,0.0,67,0.00,CLR,,0.28,WeatherDisplay:10.37,2013-08-09 03:38:00,
2013-08-08 22:44:00,71.3,59.8,29.93,North,11,3.5,3.5,67,0.00,CLR,,0.28,WeatherDisplay:10.37,2013-08-09 03:44:00,
2013-08-08 22:49:00,71.2,59.7,29.93,NNE,23,3.5,3.5,67,0.00,CLR,,0.28,WeatherDisplay:10.37,2013-08-09 03:49:00,
2013-08-08 22:54:00,70.9,59.4,29.93,NNE,17,3.5,3.5,67,0.00,CLR,,0.28,WeatherDisplay:10.37,2013-08-09 03:54:00,
2013-08-08 22:59:00,70.8,59.3,29.93,NNE,33,3.5,0.0,67,0.00,CLR,,0.28,WeatherDisplay:10.37,2013-08-09 03:59:00,
2013-08-08 23:01:00,70.8,59.3,29.93,NE,38,5.8,5.8,67,0.00,CLR,,0.28,WeatherDisplay:10.37,2013-08-09 04:01:00,
2013-08-08 23:02:00,70.7,59.2,29.93,North,355,6.9,6.9,67,0.00,CLR,,0.28,WeatherDisplay:10.37,2013-08-09 04:02:00,
2013-08-08 23:04:00,70.7,59.2,29.93,NNE,22,4.0,4.0,67,0.00,CLR,,0.28,WeatherDisplay:10.37,2013-08-09 04:04:00,
2013-08-08 23:09:00,70.6,59.1,29.93,ENE,59,1.2,1.2,67,0.00,CLR,,0.28,WeatherDisplay:10.37,2013-08-09 04:09:00,
2013-08-08 23:15:00,70.4,58.9,29.93,NE,44,2.3,2.3,67,0.00,CLR,,0.28,WeatherDisplay:10.37,2013-08-09 04:15:00,
2013-08-08 23:20:00,70.2,59.1,29.93,NNE,18,3.5,0.0,68,0.00,CLR,,0.28,WeatherDisplay:10.37,2013-08-09 04:20:00,
2013-08-08 23:25:00,70.1,59.0,29.93,NNE,25,5.0,5.0,68,0.00,CLR,,0.28,WeatherDisplay:10.37,2013-08-09 04:25:00,
2013-08-08 23:30:00,70.0,59.0,29.93,NNE,18,1.2,0.0,68,0.00,CLR,,0.28,WeatherDisplay:10.37,2013-08-09 04:30:00,
2013-08-08 23:35:00,69.8,58.3,29.93,NNE,24,3.5,3.5,67,0.00,CLR,,0.28,WeatherDisplay:10.37,2013-08-09 04:35:00,
2013-08-08 23:40:00,69.7,58.3,29.93,NNE,17,0.0,0.0,67,0.00,CLR,,0.28,WeatherDisplay:10.37,2013-08-09 04:40:00,
2013-08-08 23:45:00,69.4,58.0,29.93,North,11,0.0,0.0,67,0.00,CLR,,0.28,WeatherDisplay:10.37,2013-08-09 04:45:00,
2013-08-08 23:50:00,69.2,57.8,29.93,NNE,13,2.3,0.0,67,0.00,CLR,,0.28,WeatherDisplay:10.37,2013-08-09 04:50:00,
2013-08-08 23:55:00,69.0,57.6,29.93,NE,36,0.0,0.0,67,0.00,CLR,,0.28,WeatherDisplay:10.37,2013-08-09 04:55:00,